Time,TemperatureF,DewpointF,PressureIn,WindDirection,WindDirectionDegrees,WindSpeedMPH,WindSpeedGustMPH,Humidity,HourlyPrecipIn,Conditions,Clouds,dailyrainin,SoftwareType,DateUTC
2013-07-10 00:02:00,70.0,68.0,30.04,North,0,0.0,-999.0,94,-99.99,,,-99.99,,2013-07-10 05:02:00,
2013-07-10 00:22:00,70.0,66.0,30.05,North,0,0.0,-999.0,88,-99.99,,,-99.99,,2013-07-10 05:22:00,
2013-07-10 00:32:00,70.0,66.0,30.05,North,0,0.0,-999.0,88,-99.99,,,-99.99,,2013-07-10 05:32:00,
2013-07-10 00:42:00,70.0,66.0,30.05,North,0,0.0,-999.0,88,-99.99,,,-99.99,,2013-07-10 05:42:00,
2013-07-10 01:01:00,70.0,66.0,30.05,North,0,0.0,-999.0,88,-99.99,,,-99.99,,2013-07-10 06:01:00,
2013-07-10 01:21:00,70.0,66.0,30.06,North,0,0.0,-999.0,88,-99.99,,,-99.99,,2013-07-10 06:21:00,
2013-07-10 01:32:00,68.0,64.0,30.06,North,0,0.0,-999.0,88,-99.99,,,-99.99,,2013-07-10 06:32:00,
2013-07-10 01:42:00,68.0,64.0,30.06,North,0,0.0,-999.0,88,-99.99,,,-99.99,,2013-07-10 06:42:00,
2013-07-10 02:01:00,68.0,66.0,30.07,North,0,0.0,-999.0,93,-99.99,,,-99.99,,2013-07-10 07:01:00,
2013-07-10 02:11:00,70.0,66.0,30.07,North,350,7.0,-999.0,88,-99.99,,,-99.99,,2013-07-10 07:11:00,
2013-07-10 02:22:00,70.0,66.0,30.07,North,350,7.0,-999.0,88,-99.99,,,-99.99,,2013-07-10 07:22:00,
2013-07-10 02:33:00,70.0,66.0,30.08,North,360,7.0,-999.0,88,-99.99,,,-99.99,,2013-07-10 07:33:00,
2013-07-10 02:43:00,70.0,66.0,30.08,North,360,7.0,-999.0,88,-99.99,,,-99.99,,2013-07-10 07:43:00,
2013-07-10 02:53:00,70.0,66.0,30.08,North,360,7.0,-999.0,88,-99.99,,,-99.99,,2013-07-10 07:53:00,
2013-07-10 03:11:00,66.0,64.0,30.09,North,10,6.0,-999.0,93,-99.99,,,-99.99,,2013-07-10 08:11:00,
2013-07-10 03:23:00,66.0,64.0,30.09,North,10,6.0,-999.0,93,-99.99,,,-99.99,,2013-07-10 08:23:00,
2013-07-10 03:33:00,66.0,64.0,30.09,North,0,0.0,-999.0,93,-99.99,,,-99.99,,2013-07-10 08:33:00,
2013-07-10 03:42:00,66.0,64.0,30.09,North,0,0.0,-999.0,93,-99.99,,,-99.99,,2013-07-10 08:42:00,
2013-07-10 04:02:00,66.0,64.0,30.10,North,0,0.0,-999.0,93,-99.99,,,-99.99,,2013-07-10 09:02:00,
2013-07-10 04:22:00,64.0,63.0,30.11,North,0,0.0,-999.0,93,-99.99,,,-99.99,,2013-07-10 09:22:00,
2013-07-10 04:32:00,64.0,63.0,30.12,North,0,0.0,-999.0,93,-99.99,,,-99.99,,2013-07-10 09:32:00,
2013-07-10 04:42:00,64.0,63.0,30.12,North,0,0.0,-999.0,93,-99.99,,,-99.99,,2013-07-10 09:42:00,
2013-07-10 05:01:00,64.0,63.0,30.12,North,0,0.0,-999.0,93,-99.99,,,-99.99,,2013-07-10 10:01:00,
2013-07-10 05:23:00,63.0,63.0,30.12,North,0,0.0,-999.0,100,-99.99,,,-99.99,,2013-07-10 10:23:00,
2013-07-10 05:32:00,63.0,63.0,30.13,North,0,0.0,-999.0,100,-99.99,,,-99.99,,2013-07-10 10:32:00,
2013-07-10 05:50:00,-999.0,-99.9,30.13,North,0,0.0,-999.0,-999,-99.99,,,-99.99,,2013-07-10 10:50:00,
2013-07-10 06:00:00,-999.0,-99.9,30.13,North,0,0.0,-999.0,-999,-99.99,,,-99.99,,2013-07-10 11:00:00,
2013-07-10 06:22:00,61.0,61.0,30.13,North,0,0.0,-999.0,100,-99.99,,,-99.99,,2013-07-10 11:22:00,
2013-07-10 06:43:00,61.0,61.0,30.14,North,0,0.0,-999.0,100,-99.99,,,-99.99,,2013-07-10 11:43:00,
2013-07-10 06:52:00,63.0,61.0,30.14,North,0,0.0,-999.0,93,-99.99,,,-99.99,,2013-07-10 11:52:00,
2013-07-10 07:01:00,63.0,61.0,30.14,North,0,0.0,-999.0,93,-99.99,,,-99.99,,2013-07-10 12:01:00,
2013-07-10 07:22:00,63.0,61.0,30.15,North,0,0.0,-999.0,93,-99.99,,,-99.99,,2013-07-10 12:22:00,
2013-07-10 07:33:00,64.0,63.0,30.15,North,350,5.0,-999.0,93,-99.99,,,-99.99,,2013-07-10 12:33:00,
2013-07-10 07:43:00,64.0,63.0,30.15,North,350,5.0,-999.0,93,-99.99,,,-99.99,,2013-07-10 12:43:00,
2013-07-10 08:01:00,64.0,63.0,30.15,North,360,6.0,-999.0,93,-99.99,,,-99.99,,2013-07-10 13:01:00,
2013-07-10 08:11:00,64.0,61.0,30.15,NNE,20,6.0,-999.0,88,-99.99,,,-99.99,,2013-07-10 13:11:00,
2013-07-10 08:21:00,64.0,61.0,30.15,NNE,20,6.0,-999.0,88,-99.99,,,-99.99,,2013-07-10 13:21:00,
2013-07-10 08:32:00,66.0,61.0,30.16,North,10,8.0,-999.0,82,-99.99,,,-99.99,,2013-07-10 13:32:00,
2013-07-10 08:43:00,66.0,61.0,30.16,North,10,8.0,-999.0,82,-99.99,,,-99.99,,2013-07-10 13:43:00,
2013-07-10 08:52:00,66.0,61.0,30.16,North,10,7.0,-999.0,82,-99.99,,,-99.99,,2013-07-10 13:52:00,
2013-07-10 09:01:00,66.0,61.0,30.16,North,10,7.0,-999.0,82,-99.99,,,-99.99,,2013-07-10 14:01:00,
2013-07-10 09:22:00,68.0,61.0,30.16,North,10,8.0,-999.0,77,-99.99,,,-99.99,,2013-07-10 14:22:00,
2013-07-10 09:33:00,70.0,63.0,30.17,North,0,0.0,-999.0,77,-99.99,,,-99.99,,2013-07-10 14:33:00,
2013-07-10 09:43:00,70.0,63.0,30.17,North,0,0.0,-999.0,77,-99.99,,,-99.99,,2013-07-10 14:43:00,
2013-07-10 10:01:00,70.0,61.0,30.16,NNE,30,7.0,-999.0,73,-99.99,,,-99.99,,2013-07-10 15:01:00,
2013-07-10 10:22:00,70.0,61.0,30.16,NNE,30,5.0,-999.0,73,-99.99,,,-99.99,,2013-07-10 15:22:00,
2013-07-10 10:42:00,72.0,61.0,30.16,NNE,20,5.0,-999.0,68,-99.99,,,-99.99,,2013-07-10 15:42:00,
2013-07-10 11:01:00,72.0,61.0,30.16,NNE,30,5.0,-999.0,68,-99.99,,,-99.99,,2013-07-10 16:01:00,
2013-07-10 11:11:00,72.0,59.0,30.16,North,360,5.0,-999.0,64,-99.99,,,-99.99,,2013-07-10 16:11:00,
2013-07-10 11:22:00,72.0,59.0,30.16,North,360,5.0,-999.0,64,-99.99,,,-99.99,,2013-07-10 16:22:00,
2013-07-10 11:44:00,73.0,63.0,30.15,North,360,5.0,-999.0,68,-99.99,,,-99.99,,2013-07-10 16:44:00,
2013-07-10 12:02:00,73.0,61.0,30.15,NNW,340,7.0,-999.0,64,-99.99,,,-99.99,,2013-07-10 17:02:00,
2013-07-10 12:23:00,73.0,57.0,30.16,North,350,7.0,-999.0,56,-99.99,,,-99.99,,2013-07-10 17:23:00,
2013-07-10 12:43:00,73.0,57.0,30.16,North,0,0.0,-999.0,56,-99.99,,,-99.99,,2013-07-10 17:43:00,
2013-07-10 12:52:00,73.0,59.0,30.15,NE,40,7.0,-999.0,60,-99.99,,,-99.99,,2013-07-10 17:52:00,
2013-07-10 13:02:00,73.0,59.0,30.15,NE,40,7.0,-999.0,60,-99.99,,,-99.99,,2013-07-10 18:02:00,
2013-07-10 13:21:00,75.0,57.0,30.16,NW,320,8.0,-999.0,53,-99.99,,,-99.99,,2013-07-10 18:21:00,
2013-07-10 13:32:00,75.0,59.0,30.15,North,0,0.0,-999.0,57,-99.99,,,-99.99,,2013-07-10 18:32:00,
2013-07-10 13:44:00,75.0,59.0,30.15,North,0,0.0,-999.0,57,-99.99,,,-99.99,,2013-07-10 18:44:00,
2013-07-10 14:01:00,75.0,54.0,30.15,North,0,0.0,-999.0,46,-99.99,,,-99.99,,2013-07-10 19:01:00,
2013-07-10 14:22:00,77.0,55.0,30.15,North,350,5.0,-999.0,47,-99.99,,,-99.99,,2013-07-10 19:22:00,
2013-07-10 14:32:00,77.0,57.0,30.15,North,0,0.0,-999.0,50,-99.99,,,-99.99,,2013-07-10 19:32:00,
2013-07-10 14:42:00,77.0,57.0,30.15,North,0,0.0,-999.0,50,-99.99,,,-99.99,,2013-07-10 19:42:00,
2013-07-10 15:01:00,77.0,54.0,30.14,North,0,0.0,-999.0,44,-99.99,,,-99.99,,2013-07-10 20:01:00,
2013-07-10 15:11:00,79.0,57.0,30.13,North,0,0.0,-999.0,47,-99.99,,,-99.99,,2013-07-10 20:11:00,
2013-07-10 15:22:00,79.0,57.0,30.13,North,0,0.0,-999.0,47,-99.99,,,-99.99,,2013-07-10 20:22:00,
2013-07-10 15:32:00,79.0,57.0,30.12,NNE,20,6.0,-999.0,47,-99.99,,,-99.99,,2013-07-10 20:32:00,
2013-07-10 15:43:00,79.0,57.0,30.12,NNE,20,6.0,-999.0,47,-99.99,,,-99.99,,2013-07-10 20:43:00,
2013-07-10 15:52:00,79.0,55.0,30.11,ENE,60,6.0,-999.0,44,-99.99,,,-99.99,,2013-07-10 20:52:00,
2013-07-10 16:01:00,79.0,55.0,30.11,ENE,60,6.0,-999.0,44,-99.99,,,-99.99,,2013-07-10 21:01:00,
2013-07-10 16:22:00,79.0,57.0,30.11,North,0,0.0,-999.0,47,-99.99,,,-99.99,,2013-07-10 21:22:00,
2013-07-10 16:32:00,79.0,54.0,30.11,North,0,0.0,-999.0,41,-99.99,,,-99.99,,2013-07-10 21:32:00,
2013-07-10 16:41:00,79.0,54.0,30.11,North,0,0.0,-999.0,41,-99.99,,,-99.99,,2013-07-10 21:41:00,
2013-07-10 16:52:00,79.0,55.0,30.11,North,0,0.0,-999.0,44,-99.99,,,-99.99,,2013-07-10 21:52:00,
2013-07-10 17:01:00,79.0,55.0,30.11,North,0,0.0,-999.0,44,-99.99,,,-99.99,,2013-07-10 22:01:00,
2013-07-10 17:21:00,81.0,54.0,30.10,North,0,0.0,-999.0,39,-99.99,,,-99.99,,2013-07-10 22:21:00,
2013-07-10 17:42:00,81.0,55.0,30.09,North,0,0.0,-999.0,41,-99.99,,,-99.99,,2013-07-10 22:42:00,
2013-07-10 18:01:00,79.0,54.0,30.09,North,0,0.0,-999.0,41,-99.99,,,-99.99,,2013-07-10 23:01:00,
2013-07-10 18:22:00,79.0,55.0,30.08,North,0,0.0,-999.0,44,-99.99,,,-99.99,,2013-07-10 23:22:00,
2013-07-10 18:32:00,79.0,55.0,30.07,North,0,0.0,-999.0,44,-99.99,,,-99.99,,2013-07-10 23:32:00,
2013-07-10 18:43:00,79.0,55.0,30.07,North,0,0.0,-999.0,44,-99.99,,,-99.99,,2013-07-10 23:43:00,
2013-07-10 19:01:00,79.0,57.0,30.07,North,0,0.0,-999.0,47,-99.99,,,-99.99,,2013-07-11 00:01:00,
2013-07-10 19:11:00,79.0,59.0,30.07,SE,130,5.0,-999.0,50,-99.99,,,-99.99,,2013-07-11 00:11:00,
2013-07-10 19:22:00,79.0,59.0,30.07,SE,130,5.0,-999.0,50,-99.99,,,-99.99,,2013-07-11 00:22:00,
2013-07-10 19:42:00,79.0,59.0,30.07,North,0,0.0,-999.0,50,-99.99,,,-99.99,,2013-07-11 00:42:00,
2013-07-10 20:01:00,79.0,61.0,30.06,North,0,0.0,-999.0,54,-99.99,,,-99.99,,2013-07-11 01:01:00,
2013-07-10 20:11:00,77.0,59.0,30.07,North,0,0.0,-999.0,53,-99.99,,,-99.99,,2013-07-11 01:11:00,
2013-07-10 20:22:00,77.0,59.0,30.07,North,0,0.0,-999.0,53,-99.99,,,-99.99,,2013-07-11 01:22:00,
2013-07-10 20:43:00,75.0,61.0,30.07,North,0,0.0,-999.0,60,-99.99,,,-99.99,,2013-07-11 01:43:00,
2013-07-10 20:52:00,75.0,61.0,30.07,North,0,0.0,-999.0,60,-99.99,,,-99.99,,2013-07-11 01:52:00,
2013-07-10 21:02:00,75.0,61.0,30.07,North,0,0.0,-999.0,60,-99.99,,,-99.99,,2013-07-11 02:02:00,
2013-07-10 21:22:00,75.0,63.0,30.07,North,0,0.0,-999.0,64,-99.99,,,-99.99,,2013-07-11 02:22:00,
2013-07-10 21:43:00,73.0,63.0,30.07,North,0,0.0,-999.0,68,-99.99,,,-99.99,,2013-07-11 02:43:00,
2013-07-10 22:01:00,70.0,63.0,30.08,North,0,0.0,-999.0,77,-99.99,,,-99.99,,2013-07-11 03:01:00,
2013-07-10 22:11:00,68.0,63.0,30.09,North,0,0.0,-999.0,82,-99.99,,,-99.99,,2013-07-11 03:11:00,
2013-07-10 22:21:00,68.0,63.0,30.09,North,0,0.0,-999.0,82,-99.99,,,-99.99,,2013-07-11 03:21:00,
2013-07-10 23:01:00,66.0,63.0,30.10,North,0,0.0,-999.0,88,-99.99,,,-99.99,,2013-07-11 04:01:00,
2013-07-10 23:22:00,66.0,63.0,30.11,North,0,0.0,-999.0,88,-99.99,,,-99.99,,2013-07-11 04:22:00,
2013-07-10 23:32:00,64.0,63.0,30.10,North,0,0.0,-999.0,93,-99.99,,,-99.99,,2013-07-11 04:32:00,
2013-07-10 23:42:00,64.0,63.0,30.10,North,0,0.0,-999.0,93,-99.99,,,-99.99,,2013-07-11 04:42:00,